Change the Weather History Date:

Wednesday, October 30, 2013

  Actual Average (VTBD) Record (VTBD)
Temperature  
Mean Temperature 86 °F -  
Max Temperature 94 °F 89 °F 97 °F (2012)
Min Temperature 77 °F 72 °F 71 °F (2010)
Cooling Degree Days 20    
Growing Degree Days 36 (Base 50)    
Moisture  
Dew Point 71 °F    
Average Humidity 63    
Maximum Humidity 90    
Minimum Humidity 40    
Precipitation  
Precipitation 0.00 in 0.09 in - ()
Sea Level Pressure  
Sea Level Pressure 29.90 in    
Wind  
Wind Speed 4 mph ()    
Max Wind Speed 12 mph    
Max Gust Speed 24 mph    
Visibility 4.7 miles    
Events      
Averages and records for this station are not official NWS values.
T = Trace of Precipitation, MM = Missing Value Source: Averaged Metar Reports

Daily Weather History Graph

Daily Weather History Graph

Search for Another Location

Airport or City:

Trip Planner

Search our weather history database for the weather conditions in past years. The results will help you decide how hot, cold, wet, or windy it might be!

Date:

Astronomy

Oct. 30, 2013 Rise Set
Actual Time 6:09 AM ICT 5:49 PM ICT
Civil Twilight 5:47 AM ICT 6:11 PM ICT
Nautical Twilight 5:22 AM ICT 6:36 PM ICT
Astronomical Twilight 4:57 AM ICT 7:01 PM ICT
Moon 2:11 AM ICT (10/30) 2:39 PM ICT (10/30)
Length of Visible Light 12h 23m
Length of Day
11h 40m
Waning Crescent, 21% of the Moon is Illuminated
Oct 30
Waning Crescent
Nov 3
New
Nov 10
First Quarter
Nov 17
Full
Nov 26
Last Quarter

Hourly Weather History & Observations

Time (ICT) Temp. Heat Index Dew Point Humidity Pressure Visibility Wind Dir Wind Speed Gust Speed Precip Events Conditions
12:00 AM 80.6 °F 85.4 °F 73.4 °F 79% 29.92 in 3.7 mi SSW 3.5 mph - N/A   Mostly Cloudy
12:30 AM 80.6 °F 85.4 °F 73.4 °F 79% 29.92 in 3.7 mi Variable 2.3 mph - N/A   Mostly Cloudy
1:00 AM 80.6 °F 85.4 °F 73.4 °F 79% 29.92 in 3.7 mi WSW 5.8 mph - N/A   Mostly Cloudy
1:30 AM 80.6 °F 85.4 °F 73.4 °F 79% 29.89 in 3.7 mi Variable 2.3 mph - N/A   Mostly Cloudy
2:00 AM 80.6 °F 85.4 °F 73.4 °F 79% 29.89 in 3.7 mi NW 3.5 mph - N/A   Mostly Cloudy
2:30 AM 80.6 °F 85.4 °F 73.4 °F 79% 29.89 in 3.7 mi Variable 2.3 mph - N/A   Mostly Cloudy
3:00 AM 80.6 °F 85.4 °F 73.4 °F 79% 29.89 in 3.7 mi NNW 3.5 mph - N/A   Mostly Cloudy
3:30 AM 80.6 °F 85.4 °F 73.4 °F 79% 29.89 in 3.7 mi North 2.3 mph - N/A   Mostly Cloudy
4:00 AM 80.6 °F 84.6 °F 71.6 °F 74% 29.89 in 3.7 mi Calm Calm - N/A   Mostly Cloudy
4:30 AM 78.8 °F - 71.6 °F 78% 29.89 in 3.1 mi NNE 3.5 mph - N/A   Mostly Cloudy
5:00 AM 78.8 °F - 71.6 °F 78% 29.89 in 3.1 mi Variable 1.2 mph - N/A   Mostly Cloudy
5:30 AM 78.8 °F - 71.6 °F 78% 29.89 in 3.1 mi NNW 3.5 mph - N/A   Mostly Cloudy
6:00 AM 80.6 °F 85.4 °F 73.4 °F 79% 29.92 in 3.1 mi NNW 3.5 mph - N/A   Scattered Clouds
6:30 AM 80.6 °F 84.6 °F 71.6 °F 74% 29.92 in 2.5 mi NNW 3.5 mph - N/A   Mist
7:00 AM 79 °F - 76 °F 90% 29.92 in 4 mi Calm Calm - -   Mist
7:00 AM 80.6 °F 85.4 °F 73.4 °F 79% 29.95 in 2.5 mi NNW 3.5 mph - N/A   Mist
7:30 AM 82.4 °F 88.2 °F 73.4 °F 74% 29.95 in 3.1 mi NNW 3.5 mph - N/A   Mist
8:00 AM 82.4 °F 88.2 °F 73.4 °F 74% 29.95 in 3.1 mi Variable 2.3 mph - N/A   Mist
8:30 AM 84.2 °F 90.9 °F 73.4 °F 70% 29.98 in 3.1 mi NNW 2.3 mph - N/A   Mist
9:00 AM 86.0 °F 93.4 °F 73.4 °F 66% 29.98 in 3.1 mi East 5.8 mph - N/A   Scattered Clouds
9:30 AM 86.0 °F 93.4 °F 73.4 °F 66% 29.98 in 3.7 mi ENE 5.8 mph - N/A   Scattered Clouds
10:00 AM 87.8 °F 93.8 °F 71.6 °F 58% 29.98 in 5.6 mi ESE 4.6 mph - N/A   Scattered Clouds
10:30 AM 89.6 °F 94.7 °F 69.8 °F 52% 29.98 in 6.2 mi ENE 8.1 mph - N/A   Scattered Clouds
11:00 AM 89.6 °F 93.4 °F 68.0 °F 49% 29.95 in 6.2 mi East 9.2 mph - N/A   Scattered Clouds
11:30 AM 89.6 °F 93.4 °F 68.0 °F 49% 29.95 in 6.2 mi East 8.1 mph 24.2 mph N/A   Scattered Clouds
12:00 PM 89.6 °F 94.7 °F 69.8 °F 52% 29.92 in 6.2 mi ENE 9.2 mph - N/A   Scattered Clouds
12:30 PM 91.4 °F 94.0 °F 66.2 °F 43% 29.92 in 6.2 mi ENE 9.2 mph - N/A   Scattered Clouds
1:00 PM 93 °F - 72 °F 40% 29.88 in 5 mi Calm Calm - -   Haze
1:00 PM 91.4 °F 94.0 °F 66.2 °F 43% 29.92 in 6.2 mi East 9.2 mph - N/A   Scattered Clouds
1:30 PM 89.6 °F 92.2 °F 66.2 °F 46% 29.89 in 6.2 mi ENE 8.1 mph - N/A   Scattered Clouds
2:00 PM 93.2 °F 96.2 °F 66.2 °F 41% 29.86 in 6.2 mi NE 6.9 mph - N/A   Scattered Clouds
2:30 PM 91.4 °F 93.2 °F 64.4 °F 41% 29.86 in 6.2 mi East 9.2 mph - N/A   Scattered Clouds
3:00 PM 91.4 °F 93.2 °F 64.4 °F 41% 29.83 in 6.2 mi ENE 11.5 mph - N/A   Scattered Clouds
3:30 PM 93.2 °F 96.2 °F 66.2 °F 41% 29.83 in 6.2 mi ENE 10.4 mph 21.9 mph N/A   Scattered Clouds
4:00 PM 91.4 °F 93.2 °F 64.4 °F 41% 29.83 in 6.2 mi ENE 9.2 mph - N/A   Scattered Clouds
4:30 PM 91.4 °F 94.0 °F 66.2 °F 43% 29.83 in 6.2 mi ENE 9.2 mph 21.9 mph N/A   Scattered Clouds
5:00 PM 91.4 °F 93.2 °F 64.4 °F 41% 29.83 in 6.2 mi ENE 9.2 mph - N/A   Scattered Clouds
5:30 PM 87.8 °F 90.4 °F 66.2 °F 49% 29.83 in 6.2 mi East 6.9 mph - N/A   Scattered Clouds
6:00 PM 89.6 °F 93.4 °F 68.0 °F 49% 29.83 in 6.2 mi East 6.9 mph - N/A   Scattered Clouds
6:30 PM 87.8 °F 91.4 °F 68.0 °F 52% 29.83 in 6.2 mi East 4.6 mph - N/A   Scattered Clouds
7:00 PM 87 °F - 72 °F 52% 29.85 in 5 mi Calm Calm - -   Haze
7:00 PM 86.0 °F 90.4 °F 69.8 °F 58% 29.86 in 6.2 mi SSW 4.6 mph - N/A   Scattered Clouds
7:30 PM 91.4 °F 93.2 °F 64.4 °F 41% 29.86 in 6.2 mi NNW 2.3 mph - N/A   Scattered Clouds
8:00 PM 84.2 °F 88.4 °F 69.8 °F 62% 29.89 in 6.2 mi WNW 3.5 mph - N/A   Scattered Clouds
8:30 PM 84.2 °F 89.6 °F 71.6 °F 66% 29.89 in 5.0 mi West 3.5 mph - N/A   Scattered Clouds
9:00 PM 84.2 °F 90.9 °F 73.4 °F 70% 29.89 in 5.0 mi WNW 4.6 mph - N/A   Scattered Clouds
9:30 PM 82.4 °F 88.2 °F 73.4 °F 74% 29.89 in 4.3 mi West 3.5 mph - N/A   Mostly Cloudy
10:00 PM 82.4 °F 88.2 °F 73.4 °F 74% 29.89 in 3.7 mi West 4.6 mph - N/A   Mostly Cloudy
10:30 PM 82.4 °F 88.2 °F 73.4 °F 74% 29.89 in 3.1 mi West 4.6 mph - N/A   Mostly Cloudy
11:00 PM 82.4 °F 88.2 °F 73.4 °F 74% 29.89 in 3.1 mi WNW 3.5 mph - N/A   Mostly Cloudy
11:30 PM 82.4 °F 88.2 °F 73.4 °F 74% 29.89 in 3.1 mi WNW 3.5 mph - N/A   Mostly Cloudy